Погода в Лисине

Россия / Омская область     56°23′54″N   75°05′37″E
темп.,
°C
ветер,
м/с
пор.,
м/с
влажн.,
%
обл.,
%
осадки,
мм/ч
давл.,
гПа
погр.,
м
25 февраля, чт
чт2500:00−18всв3896100 1.5 1009573
03:00−21ю1499100 0.6 1008255
06:00−26юз2499100 0.8 1009113
09:00−25юз2399100 0.1 1011126
12:00−22юз2294100 0.3 1012296
15:00−21зюз2393100 0.1 1014480
18:00−21сз3694100 0.3 1016462
21:00−23сз3797100 0.1 1019359
26 февраля, пт
пт2600:00−30сз239885 0.1 102167
03:00−33зсз23999 0.0 102346
06:00−34зсз229910 0.0 102624
09:00−34з229814 0.0 102862
12:00−28з249431 0.0 1030313
15:00−25зюз359399 0.0 1030462
18:00−27зюз249799 0.0 1031100
21:00−30зюз239987 0.0 103330
27 февраля, сб
сб2700:00−32юз129978 0.0 103319
03:00−32ююз2210068 0.0 103319
06:00−33юз229964 0.0 103419
09:00−32ююз229849 0.0 103447
12:00−26ююз239358 0.0 1034294
15:00−23ююз2493100 0.0 1034388
18:00−25ююв2297100 0.0 103439
21:00−29ююв239864 0.0 103441
28 февраля, вс
вс2800:00−30юв259859 0.0 103485
03:00−31юв369762 0.0 1033121
06:00−30юв4109571 0.0 1032208
09:00−27вюв51194100 0.0 1030271
12:00−22вюв51294100 0.0 1027331
15:00−19вюв61193100 0.0 1024399
18:00−18вюв61494100 0.1 1021448
21:00−17вюв51393100 0.3 1019533
1 марта, пн
пн100:00−15в51293100 0.7 1015485
03:00−13в51194100 0.7 1011431
06:00−12всв4994100 1.5 1009388
09:00−12св3694100 0.4 1009268
12:00−10с239299 0.4 1010262
15:00−8зсз3391100 0.1 1012488
18:00−12з2496100 0.1 1013130
21:00−15з129898 0.0 101420